Time,TemperatureF,DewpointF,PressureIn,WindDirection,WindDirectionDegrees,WindSpeedMPH,WindSpeedGustMPH,Humidity,HourlyPrecipIn,Conditions,Clouds,dailyrainin,SoftwareType,DateUTC
2013-03-16 00:04:00,51.6,41.8,30.03,NE,45,0.0,0.0,69,0.00,,---,0.00,VWS V14.01,2013-03-16 07:04:00,
2013-03-16 00:09:00,51.6,41.8,30.03,SE,135,0.0,0.0,69,0.00,,---,0.00,VWS V14.01,2013-03-16 07:09:00,
2013-03-16 00:14:00,51.4,41.6,30.03,ENE,68,0.0,0.0,69,0.00,,---,0.00,VWS V14.01,2013-03-16 07:14:00,
2013-03-16 00:19:00,51.3,41.5,30.03,ENE,68,0.0,0.0,69,0.00,,---,0.00,VWS V14.01,2013-03-16 07:19:00,
2013-03-16 00:24:00,51.3,41.5,30.03,ENE,68,0.0,0.0,69,0.00,,---,0.00,VWS V14.01,2013-03-16 07:24:00,
2013-03-16 00:29:00,50.9,41.1,30.03,NNE,22,0.0,0.0,69,0.00,,---,0.00,VWS V14.01,2013-03-16 07:29:00,
2013-03-16 00:34:00,50.9,41.1,30.03,North,0,0.0,0.0,69,0.00,,---,0.00,VWS V14.01,2013-03-16 07:34:00,
2013-03-16 00:39:00,50.7,40.9,30.03,NNE,22,0.0,0.0,69,0.00,,---,0.00,VWS V14.01,2013-03-16 07:39:00,
2013-03-16 00:44:00,50.7,40.9,30.03,South,180,0.0,0.0,69,0.00,,---,0.00,VWS V14.01,2013-03-16 07:44:00,
2013-03-16 00:49:00,50.7,40.9,30.03,ESE,112,0.0,0.0,69,0.00,,---,0.00,VWS V14.01,2013-03-16 07:49:00,
2013-03-16 00:54:00,50.7,40.9,30.03,South,180,0.0,0.0,69,0.00,,---,0.00,VWS V14.01,2013-03-16 07:54:00,
2013-03-16 00:59:00,50.2,40.8,30.03,WSW,248,0.0,0.0,70,0.00,,---,0.00,VWS V14.01,2013-03-16 07:59:00,
2013-03-16 01:04:00,50.2,40.8,30.03,East,90,0.0,0.0,70,0.00,,---,0.00,VWS V14.01,2013-03-16 08:04:00,
2013-03-16 01:09:00,50.0,40.6,30.03,NE,45,0.0,0.0,70,0.00,,---,0.00,VWS V14.01,2013-03-16 08:09:00,
2013-03-16 01:14:00,49.8,40.8,30.03,NNW,338,0.0,0.0,71,0.00,,---,0.00,VWS V14.01,2013-03-16 08:14:00,
2013-03-16 01:19:00,49.8,40.8,30.03,SW,225,0.0,0.0,71,0.00,,---,0.00,VWS V14.01,2013-03-16 08:19:00,
2013-03-16 01:24:00,49.6,40.6,30.03,NE,45,0.0,0.0,71,0.00,,---,0.00,VWS V14.01,2013-03-16 08:24:00,
2013-03-16 01:29:00,49.5,40.5,30.03,NNW,338,0.0,0.0,71,0.00,,---,0.00,VWS V14.01,2013-03-16 08:29:00,
2013-03-16 01:34:00,49.5,40.5,30.03,South,180,0.0,0.0,71,0.00,,---,0.00,VWS V14.01,2013-03-16 08:34:00,
2013-03-16 01:39:00,49.1,40.1,30.03,South,180,0.0,0.0,71,0.00,,---,0.00,VWS V14.01,2013-03-16 08:39:00,
2013-03-16 01:45:00,49.1,40.1,30.03,ENE,68,0.0,0.0,71,0.00,,---,0.00,VWS V14.01,2013-03-16 08:45:00,
2013-03-16 01:50:00,48.9,39.9,30.03,ENE,68,0.0,0.0,71,0.00,,---,0.00,VWS V14.01,2013-03-16 08:50:00,
2013-03-16 01:55:00,48.7,39.8,30.03,North,0,0.0,0.0,71,0.00,,---,0.00,VWS V14.01,2013-03-16 08:55:00,
2013-03-16 02:00:00,48.7,39.8,30.03,ENE,68,0.0,0.0,71,0.00,,---,0.00,VWS V14.01,2013-03-16 09:00:00,
2013-03-16 02:05:00,48.7,39.8,30.03,SSE,158,0.0,0.0,71,0.00,,---,0.00,VWS V14.01,2013-03-16 09:05:00,
2013-03-16 02:10:00,48.6,39.6,30.03,ESE,112,0.0,0.0,71,0.00,,---,0.00,VWS V14.01,2013-03-16 09:10:00,
2013-03-16 02:15:00,48.4,39.4,30.03,NE,45,0.0,0.0,71,0.00,,---,0.00,VWS V14.01,2013-03-16 09:15:00,
2013-03-16 02:20:00,48.4,39.4,30.03,WNW,292,0.0,0.0,71,0.00,,---,0.00,VWS V14.01,2013-03-16 09:20:00,
2013-03-16 02:25:00,48.4,40.1,30.03,West,270,0.0,0.0,73,0.00,,---,0.00,VWS V14.01,2013-03-16 09:25:00,
2013-03-16 02:30:00,48.4,40.1,30.03,ESE,112,0.0,0.0,73,0.00,,---,0.00,VWS V14.01,2013-03-16 09:30:00,
2013-03-16 02:35:00,48.4,39.8,30.03,ESE,112,0.0,0.0,72,0.00,,---,0.00,VWS V14.01,2013-03-16 09:35:00,
2013-03-16 02:41:00,48.2,39.6,30.03,NE,45,0.0,0.0,72,0.00,,---,0.00,VWS V14.01,2013-03-16 09:41:00,
2013-03-16 02:46:00,48.2,39.6,30.03,NE,45,0.0,0.0,72,0.00,,---,0.00,VWS V14.01,2013-03-16 09:46:00,
2013-03-16 02:51:00,48.0,39.8,30.03,ESE,112,0.0,0.0,73,0.00,,---,0.00,VWS V14.01,2013-03-16 09:51:00,
2013-03-16 02:56:00,48.0,39.8,30.03,NE,45,0.0,0.0,73,0.00,,---,0.00,VWS V14.01,2013-03-16 09:56:00,
2013-03-16 03:01:00,48.0,39.8,30.03,NNW,338,0.0,0.0,73,0.00,,---,0.00,VWS V14.01,2013-03-16 10:01:00,
2013-03-16 03:06:00,48.0,39.8,30.03,East,90,0.0,0.0,73,0.00,,---,0.00,VWS V14.01,2013-03-16 10:06:00,
2013-03-16 03:11:00,48.0,39.8,30.03,ESE,112,0.0,0.0,73,0.00,,---,0.00,VWS V14.01,2013-03-16 10:11:00,
2013-03-16 03:17:00,47.8,39.6,30.03,ESE,112,0.0,0.0,73,0.00,,---,0.00,VWS V14.01,2013-03-16 10:17:00,
2013-03-16 03:22:00,47.8,39.6,30.03,ESE,112,0.0,0.0,73,0.00,,---,0.00,VWS V14.01,2013-03-16 10:22:00,
2013-03-16 03:27:00,47.8,39.6,30.03,ESE,112,0.0,0.0,73,0.00,,---,0.00,VWS V14.01,2013-03-16 10:27:00,
2013-03-16 03:32:00,47.8,39.6,30.03,NE,45,0.0,0.0,73,0.00,,---,0.00,VWS V14.01,2013-03-16 10:32:00,
2013-03-16 03:37:00,47.7,39.4,30.03,ESE,112,0.0,0.0,73,0.00,,---,0.00,VWS V14.01,2013-03-16 10:37:00,
2013-03-16 03:42:00,47.7,39.4,30.03,NNW,338,0.0,0.0,73,0.00,,---,0.00,VWS V14.01,2013-03-16 10:42:00,
2013-03-16 03:47:00,47.3,39.5,30.03,West,270,0.0,0.0,74,0.00,,---,0.00,VWS V14.01,2013-03-16 10:47:00,
2013-03-16 03:52:00,47.3,39.5,30.03,South,180,0.0,0.0,74,0.00,,---,0.00,VWS V14.01,2013-03-16 10:52:00,
2013-03-16 03:57:00,47.3,39.5,30.03,West,270,0.0,0.0,74,0.00,,---,0.00,VWS V14.01,2013-03-16 10:57:00,
2013-03-16 04:02:00,47.1,39.3,30.03,South,180,0.0,0.0,74,0.00,,---,0.00,VWS V14.01,2013-03-16 11:02:00,
2013-03-16 04:08:00,46.9,39.1,30.03,SE,135,0.0,0.0,74,0.00,,---,0.00,VWS V14.01,2013-03-16 11:08:00,
2013-03-16 04:13:00,46.9,39.1,30.03,ESE,112,0.0,0.0,74,0.00,,---,0.00,VWS V14.01,2013-03-16 11:13:00,
2013-03-16 04:18:00,46.9,39.1,30.03,SW,225,0.0,0.0,74,0.00,,---,0.00,VWS V14.01,2013-03-16 11:18:00,
2013-03-16 04:23:00,46.9,39.4,30.03,NNE,22,0.0,0.0,75,0.00,,---,0.00,VWS V14.01,2013-03-16 11:23:00,
2013-03-16 04:28:00,46.8,39.3,30.03,NNW,338,0.0,0.0,75,0.00,,---,0.00,VWS V14.01,2013-03-16 11:28:00,
2013-03-16 04:33:00,46.8,39.3,30.03,NNE,22,0.0,0.0,75,0.00,,---,0.00,VWS V14.01,2013-03-16 11:33:00,
2013-03-16 04:38:00,46.6,39.1,30.03,NNE,22,0.0,0.0,75,0.00,,---,0.00,VWS V14.01,2013-03-16 11:38:00,
2013-03-16 04:43:00,46.6,38.8,30.03,West,270,0.0,0.0,74,0.00,,---,0.00,VWS V14.01,2013-03-16 11:43:00,
2013-03-16 04:48:00,46.4,38.6,30.03,NW,315,0.0,0.0,74,0.00,,---,0.00,VWS V14.01,2013-03-16 11:48:00,
2013-03-16 04:53:00,46.2,38.8,30.03,NE,45,0.0,0.0,75,0.00,,---,0.00,VWS V14.01,2013-03-16 11:53:00,
2013-03-16 04:58:00,46.2,38.8,30.03,West,270,0.0,0.0,75,0.00,,---,0.00,VWS V14.01,2013-03-16 11:58:00,
2013-03-16 05:03:00,46.0,38.6,30.03,East,90,0.0,0.0,75,0.00,,---,0.00,VWS V14.01,2013-03-16 12:03:00,
2013-03-16 05:08:00,46.0,38.6,30.03,East,90,0.0,0.0,75,0.00,,---,0.00,VWS V14.01,2013-03-16 12:08:00,
2013-03-16 05:13:00,45.9,38.4,30.03,ESE,112,0.0,0.0,75,0.00,,---,0.00,VWS V14.01,2013-03-16 12:13:00,
2013-03-16 05:18:00,45.9,38.4,30.00,ESE,112,0.0,0.0,75,0.00,,---,0.00,VWS V14.01,2013-03-16 12:18:00,
2013-03-16 05:24:00,45.9,38.4,30.00,South,180,0.0,0.0,75,0.00,,---,0.00,VWS V14.01,2013-03-16 12:24:00,
2013-03-16 05:29:00,45.9,38.4,30.00,South,180,0.0,0.0,75,0.00,,---,0.00,VWS V14.01,2013-03-16 12:29:00,
2013-03-16 05:34:00,45.7,38.2,30.00,ENE,68,0.0,0.0,75,0.00,,---,0.00,VWS V14.01,2013-03-16 12:34:00,
2013-03-16 05:39:00,45.7,38.2,30.00,ENE,68,0.0,0.0,75,0.00,,---,0.00,VWS V14.01,2013-03-16 12:39:00,
2013-03-16 05:44:00,45.7,38.2,30.00,ENE,68,0.0,0.0,75,0.00,,---,0.00,VWS V14.01,2013-03-16 12:44:00,
2013-03-16 05:49:00,45.5,38.0,30.00,NNW,338,0.0,0.0,75,0.00,,---,0.00,VWS V14.01,2013-03-16 12:49:00,
2013-03-16 05:54:00,45.5,38.0,30.00,North,0,0.0,0.0,75,0.00,,---,0.00,VWS V14.01,2013-03-16 12:54:00,
2013-03-16 05:59:00,45.5,38.0,30.00,ENE,68,0.0,0.0,75,0.00,,---,0.00,VWS V14.01,2013-03-16 12:59:00,
2013-03-16 06:05:00,45.3,37.9,30.00,West,270,0.0,0.0,75,0.00,,---,0.00,VWS V14.01,2013-03-16 13:05:00,
2013-03-16 06:10:00,45.1,37.7,30.00,ESE,112,0.0,0.0,75,0.00,,---,0.00,VWS V14.01,2013-03-16 13:10:00,
2013-03-16 06:15:00,45.1,37.7,30.00,ESE,112,0.0,0.0,75,0.00,,---,0.00,VWS V14.01,2013-03-16 13:15:00,
2013-03-16 06:20:00,45.1,38.0,30.00,SSE,158,0.0,0.0,76,0.00,,---,0.00,VWS V14.01,2013-03-16 13:20:00,
2013-03-16 06:25:00,45.1,38.0,30.00,South,180,0.0,0.0,76,0.00,,---,0.00,VWS V14.01,2013-03-16 13:25:00,
2013-03-16 06:30:00,45.1,38.4,30.00,South,180,0.0,0.0,77,0.00,,---,0.00,VWS V14.01,2013-03-16 13:30:00,
2013-03-16 06:35:00,44.8,37.7,30.00,WSW,248,0.0,0.0,76,0.00,,---,0.00,VWS V14.01,2013-03-16 13:35:00,
2013-03-16 06:40:00,44.8,37.7,30.00,WSW,248,0.0,0.0,76,0.00,,---,0.00,VWS V14.01,2013-03-16 13:40:00,
2013-03-16 06:45:00,44.6,37.5,30.00,WSW,248,0.0,0.0,76,0.00,,---,0.00,VWS V14.01,2013-03-16 13:45:00,
2013-03-16 06:50:00,44.6,37.5,30.03,NNE,22,0.0,0.0,76,0.00,,---,0.00,VWS V14.01,2013-03-16 13:50:00,
2013-03-16 06:55:00,44.4,37.3,30.03,North,0,0.0,0.0,76,0.00,,---,0.00,VWS V14.01,2013-03-16 13:55:00,
2013-03-16 07:00:00,44.4,37.7,30.03,North,0,0.0,0.0,77,0.00,,---,0.00,VWS V14.01,2013-03-16 14:00:00,
2013-03-16 07:05:00,44.4,37.7,30.03,North,0,0.0,0.0,77,0.00,,---,0.00,VWS V14.01,2013-03-16 14:05:00,
2013-03-16 07:10:00,44.2,37.5,30.03,North,0,0.0,0.0,77,0.00,,---,0.00,VWS V14.01,2013-03-16 14:10:00,
2013-03-16 07:15:00,44.2,37.5,30.03,SW,225,0.0,0.0,77,0.00,,---,0.00,VWS V14.01,2013-03-16 14:15:00,
2013-03-16 07:20:00,44.1,37.3,30.03,SW,225,0.0,0.0,77,0.00,,---,0.00,VWS V14.01,2013-03-16 14:20:00,
2013-03-16 07:26:00,44.2,37.5,30.03,SW,225,0.0,0.0,77,0.00,,---,0.00,VWS V14.01,2013-03-16 14:26:00,
2013-03-16 07:31:00,44.1,37.3,30.03,SW,225,0.0,0.0,77,0.00,,---,0.00,VWS V14.01,2013-03-16 14:31:00,
2013-03-16 07:36:00,44.1,37.3,30.03,SW,225,0.0,0.0,77,0.00,,---,0.00,VWS V14.01,2013-03-16 14:36:00,
2013-03-16 07:41:00,43.9,37.2,30.03,East,90,0.0,0.0,77,0.00,,---,0.00,VWS V14.01,2013-03-16 14:41:00,
2013-03-16 07:46:00,43.9,37.2,30.03,East,90,0.0,0.0,77,0.00,,---,0.00,VWS V14.01,2013-03-16 14:46:00,
2013-03-16 07:52:00,44.1,37.3,30.03,East,90,0.0,0.0,77,0.00,,---,0.00,VWS V14.01,2013-03-16 14:52:00,
2013-03-16 07:57:00,43.9,37.2,30.03,South,180,0.0,0.0,77,0.00,,---,0.00,VWS V14.01,2013-03-16 14:57:00,
2013-03-16 08:02:00,43.7,37.0,30.03,South,180,0.0,0.0,77,0.00,,---,0.00,VWS V14.01,2013-03-16 15:02:00,
2013-03-16 08:07:00,43.7,37.0,30.03,South,180,0.0,0.0,77,0.00,,---,0.00,VWS V14.01,2013-03-16 15:07:00,
2013-03-16 08:13:00,43.7,37.0,30.03,South,180,0.0,0.0,77,0.00,,---,0.00,VWS V14.01,2013-03-16 15:13:00,
2013-03-16 08:18:00,43.9,37.2,30.03,South,180,0.0,0.0,77,0.00,,---,0.00,VWS V14.01,2013-03-16 15:18:00,
2013-03-16 08:23:00,44.1,37.3,30.03,South,180,0.0,0.0,77,0.00,,---,0.00,VWS V14.01,2013-03-16 15:23:00,
2013-03-16 08:28:00,44.2,37.5,30.03,South,180,0.0,0.0,77,0.00,,---,0.00,VWS V14.01,2013-03-16 15:28:00,
2013-03-16 08:33:00,44.2,37.5,30.06,South,180,0.0,0.0,77,0.00,,---,0.00,VWS V14.01,2013-03-16 15:33:00,
2013-03-16 08:38:00,44.4,37.7,30.06,South,180,0.0,0.0,77,0.00,,---,0.00,VWS V14.01,2013-03-16 15:38:00,
2013-03-16 08:43:00,44.4,37.7,30.06,South,180,0.0,0.0,77,0.00,,---,0.00,VWS V14.01,2013-03-16 15:43:00,
2013-03-16 08:48:00,44.4,37.7,30.03,South,180,0.0,0.0,77,0.00,,---,0.00,VWS V14.01,2013-03-16 15:48:00,
2013-03-16 08:54:00,44.8,38.0,30.03,South,180,0.0,0.0,77,0.00,,---,0.00,VWS V14.01,2013-03-16 15:54:00,
2013-03-16 08:59:00,45.1,38.4,30.03,South,180,0.0,0.0,77,0.00,,---,0.00,VWS V14.01,2013-03-16 15:59:00,
2013-03-16 09:04:00,45.3,38.5,30.03,South,180,0.0,0.0,77,0.00,,---,0.00,VWS V14.01,2013-03-16 16:04:00,
2013-03-16 09:09:00,45.5,38.7,30.03,South,180,0.0,0.0,77,0.00,,---,0.00,VWS V14.01,2013-03-16 16:09:00,
2013-03-16 09:14:00,45.7,38.9,30.03,South,180,0.0,0.0,77,0.00,,---,0.00,VWS V14.01,2013-03-16 16:14:00,
2013-03-16 09:19:00,45.9,39.1,30.03,South,180,0.0,0.0,77,0.00,,---,0.00,VWS V14.01,2013-03-16 16:19:00,
2013-03-16 09:24:00,46.2,39.4,30.03,South,180,0.0,0.0,77,0.00,,---,0.00,VWS V14.01,2013-03-16 16:24:00,
2013-03-16 09:29:00,46.6,39.4,30.03,South,180,0.0,0.0,76,0.00,,---,0.00,VWS V14.01,2013-03-16 16:29:00,
2013-03-16 09:34:00,46.9,39.8,30.06,South,180,0.0,0.0,76,0.00,,---,0.00,VWS V14.01,2013-03-16 16:34:00,
2013-03-16 09:39:00,47.5,40.3,30.06,South,180,0.0,0.0,76,0.00,,---,0.00,VWS V14.01,2013-03-16 16:39:00,
2013-03-16 09:44:00,47.8,40.7,30.06,West,270,0.0,0.0,76,0.00,,---,0.00,VWS V14.01,2013-03-16 16:44:00,
2013-03-16 09:49:00,48.2,41.0,30.06,West,270,0.0,0.0,76,0.00,,---,0.00,VWS V14.01,2013-03-16 16:49:00,
2013-03-16 09:54:00,48.6,41.3,30.06,West,270,0.0,0.0,76,0.00,,---,0.00,VWS V14.01,2013-03-16 16:54:00,
2013-03-16 09:59:00,48.9,41.7,30.06,West,270,0.0,0.0,76,0.00,,---,0.00,VWS V14.01,2013-03-16 16:59:00,
2013-03-16 10:04:00,49.5,41.9,30.06,West,270,0.0,0.0,75,0.00,,---,0.00,VWS V14.01,2013-03-16 17:04:00,
2013-03-16 10:10:00,49.8,42.2,30.06,West,270,0.0,0.0,75,0.00,,---,0.00,VWS V14.01,2013-03-16 17:10:00,
2013-03-16 10:15:00,50.4,42.8,30.06,NNW,338,2.9,2.9,75,0.00,,---,0.00,VWS V14.01,2013-03-16 17:15:00,
2013-03-16 10:20:00,51.1,43.4,30.06,NNW,338,2.9,2.9,75,0.00,,---,0.00,VWS V14.01,2013-03-16 17:20:00,
2013-03-16 10:25:00,51.8,44.1,30.06,NNW,338,2.9,2.9,75,0.00,,---,0.00,VWS V14.01,2013-03-16 17:25:00,
2013-03-16 10:30:00,52.5,44.8,30.06,NNW,338,2.9,2.9,75,0.00,,---,0.00,VWS V14.01,2013-03-16 17:30:00,
2013-03-16 10:35:00,53.1,45.4,30.09,NNW,338,2.9,2.9,75,0.00,,---,0.00,VWS V14.01,2013-03-16 17:35:00,
2013-03-16 10:40:00,53.1,45.4,30.09,NNW,338,2.9,2.9,75,0.00,,---,0.00,VWS V14.01,2013-03-16 17:40:00,
2013-03-16 10:45:00,53.1,45.4,30.09,NNW,338,2.9,2.9,75,0.00,,---,0.00,VWS V14.01,2013-03-16 17:45:00,
2013-03-16 10:50:00,53.1,45.4,30.09,NNW,338,2.9,2.9,75,0.00,,---,0.00,VWS V14.01,2013-03-16 17:50:00,
2013-03-16 10:56:00,53.1,45.4,30.09,NNW,338,2.9,2.9,75,0.00,,---,0.00,VWS V14.01,2013-03-16 17:56:00,
2013-03-16 11:01:00,53.1,45.4,30.09,NNW,338,2.9,2.9,75,0.00,,---,0.00,VWS V14.01,2013-03-16 18:01:00,
2013-03-16 11:06:00,53.1,45.4,30.09,NNW,338,2.9,2.9,75,0.00,,---,0.00,VWS V14.01,2013-03-16 18:06:00,
2013-03-16 11:12:00,53.1,45.4,30.09,NNW,338,2.9,2.9,75,0.00,,---,0.00,VWS V14.01,2013-03-16 18:12:00,
2013-03-16 11:17:00,53.1,45.4,30.09,NNW,338,2.9,2.9,75,0.00,,---,0.00,VWS V14.01,2013-03-16 18:17:00,
2013-03-16 11:22:00,53.1,45.4,30.06,West,270,0.0,2.9,75,0.00,,---,0.00,VWS V14.01,2013-03-16 18:22:00,
2013-03-16 11:27:00,53.1,45.4,30.06,West,270,0.0,0.0,75,0.00,,---,0.00,VWS V14.01,2013-03-16 18:27:00,
2013-03-16 11:32:00,53.1,45.4,30.06,West,270,0.0,0.0,75,0.00,,---,0.00,VWS V14.01,2013-03-16 18:32:00,
2013-03-16 11:38:00,53.1,45.4,30.06,West,270,0.0,0.0,75,0.00,,---,0.00,VWS V14.01,2013-03-16 18:38:00,
2013-03-16 11:43:00,53.1,45.4,30.06,West,270,0.0,0.0,75,0.00,,---,0.00,VWS V14.01,2013-03-16 18:43:00,
2013-03-16 11:48:00,53.1,45.4,30.06,West,270,1.3,1.3,75,0.00,,---,0.00,VWS V14.01,2013-03-16 18:48:00,
2013-03-16 11:53:00,53.1,45.4,30.06,West,270,1.3,1.3,75,0.00,,---,0.00,VWS V14.01,2013-03-16 18:53:00,
2013-03-16 11:58:00,53.1,45.4,30.06,West,270,1.3,1.3,75,0.00,,---,0.00,VWS V14.01,2013-03-16 18:58:00,
2013-03-16 12:03:00,53.1,45.4,30.06,SW,225,2.0,2.0,75,0.00,,---,0.00,VWS V14.01,2013-03-16 19:03:00,
2013-03-16 12:08:00,53.1,45.4,30.06,SW,225,2.0,2.0,75,0.00,,---,0.00,VWS V14.01,2013-03-16 19:08:00,
2013-03-16 12:13:00,53.1,45.4,30.06,SW,225,2.0,2.0,75,0.00,,---,0.00,VWS V14.01,2013-03-16 19:13:00,
2013-03-16 12:18:00,63.7,50.9,30.06,SW,225,2.0,2.0,63,0.00,,---,0.00,VWS V14.01,2013-03-16 19:18:00,
2013-03-16 12:23:00,63.7,50.9,30.06,SW,225,2.0,2.0,63,0.00,,---,0.00,VWS V14.01,2013-03-16 19:23:00,
2013-03-16 12:29:00,63.7,50.9,30.06,SW,225,2.0,2.0,63,0.00,,---,0.00,VWS V14.01,2013-03-16 19:29:00,
2013-03-16 12:34:00,63.7,50.9,30.06,SW,225,2.0,2.0,63,0.00,,---,0.00,VWS V14.01,2013-03-16 19:34:00,
2013-03-16 12:39:00,63.7,50.9,30.06,SW,225,2.0,2.0,63,0.00,,---,0.00,VWS V14.01,2013-03-16 19:39:00,
2013-03-16 12:44:00,63.7,50.9,30.06,SW,225,2.0,2.0,63,0.00,,---,0.00,VWS V14.01,2013-03-16 19:44:00,
2013-03-16 12:49:00,63.7,50.9,30.03,SW,225,2.0,2.0,63,0.00,,---,0.00,VWS V14.01,2013-03-16 19:49:00,
2013-03-16 12:54:00,63.7,50.9,30.03,SW,225,2.0,2.0,63,0.00,,---,0.00,VWS V14.01,2013-03-16 19:54:00,
2013-03-16 12:59:00,63.7,50.9,30.03,SW,225,2.0,2.0,63,0.00,,---,0.00,VWS V14.01,2013-03-16 19:59:00,
2013-03-16 13:04:00,63.7,50.9,30.03,SW,225,2.0,2.0,63,0.00,,---,0.00,VWS V14.01,2013-03-16 20:04:00,
2013-03-16 13:09:00,63.7,50.9,30.03,SW,225,2.0,2.0,63,0.00,,---,0.00,VWS V14.01,2013-03-16 20:09:00,
2013-03-16 13:14:00,63.7,50.9,30.03,SW,225,2.0,2.0,63,0.00,,---,0.00,VWS V14.01,2013-03-16 20:14:00,
2013-03-16 13:19:00,63.7,50.9,30.03,SW,225,2.0,2.0,63,0.00,,---,0.00,VWS V14.01,2013-03-16 20:19:00,
2013-03-16 13:24:00,63.7,50.9,30.03,SW,225,2.0,2.0,63,0.00,,---,0.00,VWS V14.01,2013-03-16 20:24:00,
2013-03-16 13:29:00,63.7,50.9,30.03,SW,225,2.0,2.0,63,0.00,,---,0.00,VWS V14.01,2013-03-16 20:29:00,
2013-03-16 13:34:00,63.7,50.9,30.03,SW,225,2.0,2.0,63,0.00,,---,0.00,VWS V14.01,2013-03-16 20:34:00,
2013-03-16 13:39:00,63.7,50.9,30.03,SW,225,2.0,2.0,63,0.00,,---,0.00,VWS V14.01,2013-03-16 20:39:00,
2013-03-16 13:44:00,63.7,50.9,30.03,SW,225,2.0,2.0,63,0.00,,---,0.00,VWS V14.01,2013-03-16 20:44:00,
2013-03-16 13:49:00,63.7,50.9,30.03,SW,225,2.0,2.0,63,0.00,,---,0.00,VWS V14.01,2013-03-16 20:49:00,
2013-03-16 13:54:00,63.7,50.9,30.03,SW,225,2.0,2.0,63,0.00,,---,0.00,VWS V14.01,2013-03-16 20:54:00,
2013-03-16 14:00:00,63.7,50.9,30.03,SW,225,2.0,2.0,63,0.00,,---,0.00,VWS V14.01,2013-03-16 21:00:00,
2013-03-16 14:05:00,63.7,50.9,30.03,West,270,3.4,3.4,63,0.00,,---,0.00,VWS V14.01,2013-03-16 21:05:00,
2013-03-16 14:10:00,63.7,50.9,30.03,West,270,3.4,3.4,63,0.00,,---,0.00,VWS V14.01,2013-03-16 21:10:00,
2013-03-16 14:15:00,63.7,50.9,30.03,West,270,3.4,3.4,63,0.00,,---,0.00,VWS V14.01,2013-03-16 21:15:00,
2013-03-16 14:20:00,63.7,50.9,30.03,West,270,3.4,3.4,63,0.00,,---,0.00,VWS V14.01,2013-03-16 21:20:00,
2013-03-16 14:25:00,63.7,50.9,30.03,West,270,3.4,3.4,63,0.00,,---,0.00,VWS V14.01,2013-03-16 21:25:00,
2013-03-16 14:30:00,63.7,50.9,30.03,West,270,3.4,3.4,63,0.00,,---,0.00,VWS V14.01,2013-03-16 21:30:00,
2013-03-16 14:35:00,63.7,50.9,30.00,West,270,3.4,3.4,63,0.00,,---,0.00,VWS V14.01,2013-03-16 21:35:00,
2013-03-16 14:40:00,76.8,54.5,30.00,West,270,3.4,3.4,46,0.00,,---,0.00,VWS V14.01,2013-03-16 21:40:00,
2013-03-16 14:45:00,76.8,54.5,30.00,West,270,3.4,3.4,46,0.00,,---,0.00,VWS V14.01,2013-03-16 21:45:00,
2013-03-16 14:50:00,76.8,54.5,30.00,West,270,3.4,3.4,46,0.00,,---,0.00,VWS V14.01,2013-03-16 21:50:00,
2013-03-16 14:55:00,76.8,54.5,30.00,West,270,3.4,3.4,46,0.00,,---,0.00,VWS V14.01,2013-03-16 21:55:00,
2013-03-16 15:00:00,76.8,54.5,30.00,West,270,3.4,3.4,46,0.00,,---,0.00,VWS V14.01,2013-03-16 22:00:00,
2013-03-16 15:06:00,77.0,53.4,30.00,West,270,3.4,3.4,44,0.00,,---,0.00,VWS V14.01,2013-03-16 22:06:00,
2013-03-16 15:12:00,77.4,53.8,30.00,West,270,3.4,3.4,44,0.00,,---,0.00,VWS V14.01,2013-03-16 22:12:00,
2013-03-16 15:17:00,77.7,54.1,30.00,NW,315,3.8,5.8,44,0.00,,---,0.00,VWS V14.01,2013-03-16 22:17:00,
2013-03-16 15:22:00,77.7,54.1,30.00,NW,315,3.8,3.8,44,0.00,,---,0.00,VWS V14.01,2013-03-16 22:22:00,
2013-03-16 15:27:00,78.3,54.6,30.00,NW,315,3.8,3.8,44,0.00,,---,0.00,VWS V14.01,2013-03-16 22:27:00,
2013-03-16 15:32:00,78.3,54.0,30.00,NW,315,3.8,3.8,43,0.00,,---,0.00,VWS V14.01,2013-03-16 22:32:00,
2013-03-16 15:37:00,78.1,53.8,30.00,West,270,2.7,3.8,43,0.00,,---,0.00,VWS V14.01,2013-03-16 22:37:00,
2013-03-16 15:42:00,78.4,54.1,30.00,West,270,1.3,1.3,43,0.00,,---,0.00,VWS V14.01,2013-03-16 22:42:00,
2013-03-16 15:47:00,78.6,54.3,30.00,West,270,1.3,1.3,43,0.00,,---,0.00,VWS V14.01,2013-03-16 22:47:00,
2013-03-16 15:52:00,78.8,53.8,30.00,NW,315,5.8,5.8,42,0.00,,---,0.00,VWS V14.01,2013-03-16 22:52:00,
2013-03-16 15:57:00,78.6,53.6,30.00,NW,315,5.8,5.8,42,0.00,,---,0.00,VWS V14.01,2013-03-16 22:57:00,
2013-03-16 16:02:00,78.1,52.5,30.00,NW,315,5.8,5.8,41,0.00,,---,0.00,VWS V14.01,2013-03-16 23:02:00,
2013-03-16 16:07:00,77.2,51.0,30.00,NW,315,8.5,8.5,40,0.00,,---,0.00,VWS V14.01,2013-03-16 23:07:00,
2013-03-16 16:13:00,77.2,50.3,30.00,NNW,338,6.3,6.3,39,0.00,,---,0.00,VWS V14.01,2013-03-16 23:13:00,
2013-03-16 16:18:00,77.2,50.3,30.00,NW,315,10.3,10.3,39,0.00,,---,0.00,VWS V14.01,2013-03-16 23:18:00,
2013-03-16 16:23:00,77.2,50.3,30.00,WNW,292,9.8,10.3,39,0.00,,---,0.00,VWS V14.01,2013-03-16 23:23:00,
2013-03-16 16:28:00,77.2,50.3,30.00,WNW,292,9.8,9.8,39,0.00,,---,0.00,VWS V14.01,2013-03-16 23:28:00,
2013-03-16 16:33:00,77.2,50.3,30.00,WNW,292,9.8,9.8,39,0.00,,---,0.00,VWS V14.01,2013-03-16 23:33:00,
2013-03-16 16:38:00,77.2,50.3,30.00,WNW,292,9.8,9.8,39,0.00,,---,0.00,VWS V14.01,2013-03-16 23:38:00,
2013-03-16 16:43:00,77.2,50.3,30.00,WNW,292,5.6,5.6,39,0.00,,---,0.00,VWS V14.01,2013-03-16 23:43:00,
2013-03-16 16:48:00,77.2,50.3,30.00,WNW,292,5.8,5.8,39,0.00,,---,0.00,VWS V14.01,2013-03-16 23:48:00,
2013-03-16 16:53:00,77.2,50.3,30.00,WNW,292,5.8,5.8,39,0.00,,---,0.00,VWS V14.01,2013-03-16 23:53:00,
2013-03-16 16:58:00,77.2,50.3,30.00,WNW,292,6.5,6.5,39,0.00,,---,0.00,VWS V14.01,2013-03-16 23:58:00,
2013-03-16 17:03:00,77.2,50.3,30.00,NW,315,4.9,4.9,39,0.00,,---,0.00,VWS V14.01,2013-03-17 00:03:00,
2013-03-16 17:09:00,77.2,50.3,30.00,West,270,6.5,6.5,39,0.00,,---,0.00,VWS V14.01,2013-03-17 00:09:00,
2013-03-16 17:14:00,77.2,50.3,30.00,NNW,338,8.5,8.5,39,0.00,,---,0.00,VWS V14.01,2013-03-17 00:14:00,
2013-03-16 17:19:00,77.2,50.3,30.00,WNW,292,8.1,8.1,39,0.00,,---,0.00,VWS V14.01,2013-03-17 00:19:00,
2013-03-16 17:24:00,72.3,46.0,30.00,North,0,9.6,9.6,39,0.00,,---,0.00,VWS V14.01,2013-03-17 00:24:00,
2013-03-16 17:29:00,72.1,45.8,30.00,North,0,9.6,9.6,39,0.00,,---,0.00,VWS V14.01,2013-03-17 00:29:00,
2013-03-16 17:34:00,71.6,44.7,30.00,NNE,22,3.6,6.0,38,0.00,,---,0.00,VWS V14.01,2013-03-17 00:34:00,
2013-03-16 17:39:00,71.4,44.5,30.00,NW,315,7.4,9.8,38,0.00,,---,0.00,VWS V14.01,2013-03-17 00:39:00,
2013-03-16 17:44:00,71.4,44.5,30.00,NW,315,12.1,12.1,38,0.00,,---,0.00,VWS V14.01,2013-03-17 00:44:00,
2013-03-16 17:49:00,71.4,44.5,30.00,WNW,292,3.6,10.7,38,0.00,,---,0.00,VWS V14.01,2013-03-17 00:49:00,
2013-03-16 17:54:00,71.4,44.5,30.00,NNW,338,6.0,14.3,38,0.00,,---,0.00,VWS V14.01,2013-03-17 00:54:00,
2013-03-16 17:59:00,71.4,44.5,30.00,NNW,338,10.1,10.1,38,0.00,,---,0.00,VWS V14.01,2013-03-17 00:59:00,
2013-03-16 18:05:00,69.8,43.8,30.00,NNW,338,3.6,6.5,39,0.00,,---,0.00,VWS V14.01,2013-03-17 01:05:00,
2013-03-16 18:10:00,69.6,44.2,30.00,WNW,292,2.5,9.4,40,0.00,,---,0.00,VWS V14.01,2013-03-17 01:10:00,
2013-03-16 18:15:00,69.4,44.1,30.00,WNW,292,11.9,11.9,40,0.00,,---,0.00,VWS V14.01,2013-03-17 01:15:00,
2013-03-16 18:20:00,69.3,43.9,30.00,SSE,158,5.8,5.8,40,0.00,,---,0.00,VWS V14.01,2013-03-17 01:20:00,
2013-03-16 18:25:00,68.7,43.5,30.00,WNW,292,13.2,13.2,40,0.00,,---,0.00,VWS V14.01,2013-03-17 01:25:00,
2013-03-16 18:30:00,68.7,43.5,30.00,NW,315,5.8,10.3,40,0.00,,---,0.00,VWS V14.01,2013-03-17 01:30:00,
2013-03-16 18:35:00,68.7,43.5,30.00,NNW,338,10.3,10.3,40,0.00,,---,0.00,VWS V14.01,2013-03-17 01:35:00,
2013-03-16 18:40:00,67.6,42.5,30.00,NNW,338,7.4,7.6,40,0.00,,---,0.00,VWS V14.01,2013-03-17 01:40:00,
2013-03-16 18:46:00,67.5,42.3,30.00,NW,315,4.0,5.6,40,0.00,,---,0.00,VWS V14.01,2013-03-17 01:46:00,
2013-03-16 18:51:00,67.5,42.3,30.00,South,180,4.0,13.4,40,0.00,,---,0.00,VWS V14.01,2013-03-17 01:51:00,
2013-03-16 18:56:00,67.5,42.3,30.00,WNW,292,6.5,8.1,40,0.00,,---,0.00,VWS V14.01,2013-03-17 01:56:00,
2013-03-16 19:01:00,67.5,42.3,30.00,NNW,338,5.4,6.5,40,0.00,,---,0.00,VWS V14.01,2013-03-17 02:01:00,
2013-03-16 19:06:00,67.5,42.3,30.00,NNW,338,3.4,6.5,40,0.00,,---,0.00,VWS V14.01,2013-03-17 02:06:00,
2013-03-16 19:11:00,65.7,42.0,30.00,WNW,292,5.8,5.8,42,0.00,,---,0.00,VWS V14.01,2013-03-17 02:11:00,
2013-03-16 19:17:00,64.9,41.3,30.00,NW,315,2.5,5.8,42,0.00,,---,0.00,VWS V14.01,2013-03-17 02:17:00,
2013-03-16 19:22:00,64.8,41.8,30.00,West,270,0.0,0.0,43,0.00,,---,0.00,VWS V14.01,2013-03-17 02:22:00,
2013-03-16 19:27:00,64.8,41.8,30.00,WNW,292,0.9,0.9,43,0.00,,---,0.00,VWS V14.01,2013-03-17 02:27:00,
2013-03-16 19:32:00,64.8,41.8,30.00,WNW,292,4.7,5.4,43,0.00,,---,0.00,VWS V14.01,2013-03-17 02:32:00,
2013-03-16 19:37:00,63.7,40.8,30.00,NNW,338,2.5,2.5,43,0.00,,---,0.00,VWS V14.01,2013-03-17 02:37:00,
2013-03-16 19:43:00,63.3,41.1,30.00,NW,315,1.1,2.5,44,0.00,,---,0.00,VWS V14.01,2013-03-17 02:43:00,
2013-03-16 19:48:00,63.0,40.7,30.00,NNE,22,2.7,2.9,44,0.00,,---,0.00,VWS V14.01,2013-03-17 02:48:00,
2013-03-16 19:53:00,63.0,40.7,30.03,NW,315,3.4,3.4,44,0.00,,---,0.00,VWS V14.01,2013-03-17 02:53:00,
2013-03-16 19:58:00,63.0,40.7,30.03,WNW,292,6.5,6.5,44,0.00,,---,0.00,VWS V14.01,2013-03-17 02:58:00,
2013-03-16 20:03:00,63.0,40.7,30.03,NNW,338,4.0,4.0,44,0.00,,---,0.00,VWS V14.01,2013-03-17 03:03:00,
2013-03-16 20:08:00,63.0,40.7,30.03,NNW,338,0.0,2.7,44,0.00,,---,0.00,VWS V14.01,2013-03-17 03:08:00,
2013-03-16 20:13:00,63.0,40.7,30.03,NNW,338,5.8,7.4,44,0.00,,---,0.00,VWS V14.01,2013-03-17 03:13:00,
2013-03-16 20:18:00,63.0,40.7,30.03,NW,315,3.6,4.3,44,0.00,,---,0.00,VWS V14.01,2013-03-17 03:18:00,
2013-03-16 20:23:00,63.0,40.7,30.03,WNW,292,3.1,4.0,44,0.00,,---,0.00,VWS V14.01,2013-03-17 03:23:00,
2013-03-16 20:28:00,63.0,40.7,30.03,NNW,338,1.6,5.6,44,0.00,,---,0.00,VWS V14.01,2013-03-17 03:28:00,
2013-03-16 20:33:00,63.0,40.7,30.03,NNW,338,4.9,4.9,44,0.00,,---,0.00,VWS V14.01,2013-03-17 03:33:00,
2013-03-16 20:38:00,63.0,40.7,30.03,NNW,338,2.5,2.5,44,0.00,,---,0.00,VWS V14.01,2013-03-17 03:38:00,
2013-03-16 20:44:00,63.0,40.7,30.03,North,0,1.6,1.6,44,0.00,,---,0.00,VWS V14.01,2013-03-17 03:44:00,
2013-03-16 20:49:00,63.0,40.7,30.03,NNE,22,2.9,2.9,44,0.00,,---,0.00,VWS V14.01,2013-03-17 03:49:00,
2013-03-16 20:54:00,63.0,40.7,30.03,NNW,338,3.1,4.0,44,0.00,,---,0.00,VWS V14.01,2013-03-17 03:54:00,
2013-03-16 20:59:00,63.0,40.7,30.03,NNW,338,2.9,3.6,44,0.00,,---,0.00,VWS V14.01,2013-03-17 03:59:00,
2013-03-16 21:00:00,63.0,40.7,30.03,NNW,338,2.9,3.6,44,0.00,,---,0.00,VWS V14.01,2013-03-17 04:00:00,
2013-03-16 21:02:00,63.0,40.7,30.03,NW,315,3.1,3.6,44,0.00,,---,0.00,VWS V14.01,2013-03-17 04:02:00,
2013-03-16 21:03:00,63.0,40.7,30.03,NNW,338,7.6,7.6,44,0.00,,---,0.00,VWS V14.01,2013-03-17 04:03:00,
2013-03-16 21:08:00,63.0,40.7,30.06,WNW,292,3.6,3.6,44,0.00,,---,0.00,VWS V14.01,2013-03-17 04:08:00,
2013-03-16 21:13:00,63.0,40.7,30.06,NNW,338,3.4,3.8,44,0.00,,---,0.00,VWS V14.01,2013-03-17 04:13:00,
2013-03-16 21:18:00,63.0,40.7,30.03,NNW,338,6.3,6.3,44,0.00,,---,0.00,VWS V14.01,2013-03-17 04:18:00,
2013-03-16 21:23:00,63.0,40.7,30.03,North,0,3.4,3.4,44,0.00,,---,0.00,VWS V14.01,2013-03-17 04:23:00,
2013-03-16 21:28:00,63.0,40.7,30.03,NNW,338,3.1,5.6,44,0.00,,---,0.00,VWS V14.01,2013-03-17 04:28:00,
2013-03-16 21:33:00,58.6,39.0,30.06,NNE,22,4.0,6.3,48,0.00,,---,0.00,VWS V14.01,2013-03-17 04:33:00,
2013-03-16 21:38:00,58.3,38.7,30.06,NNE,22,3.8,3.8,48,0.00,,---,0.00,VWS V14.01,2013-03-17 04:38:00,
2013-03-16 21:43:00,58.1,38.5,30.06,NE,45,4.0,4.0,48,0.00,,---,0.00,VWS V14.01,2013-03-17 04:43:00,
2013-03-16 21:49:00,57.9,38.4,30.06,NNE,22,5.4,5.4,48,0.00,,---,0.00,VWS V14.01,2013-03-17 04:49:00,
2013-03-16 21:54:00,57.9,38.4,30.06,NNW,338,3.4,3.4,48,0.00,,---,0.00,VWS V14.01,2013-03-17 04:54:00,
2013-03-16 21:59:00,57.7,38.7,30.06,NNE,22,4.0,4.0,49,0.00,,---,0.00,VWS V14.01,2013-03-17 04:59:00,
2013-03-16 22:04:00,57.6,38.6,30.06,NW,315,2.5,3.1,49,0.00,,---,0.00,VWS V14.01,2013-03-17 05:04:00,
2013-03-16 22:09:00,57.4,38.4,30.06,NW,315,2.5,2.5,49,0.00,,---,0.00,VWS V14.01,2013-03-17 05:09:00,
2013-03-16 22:14:00,57.4,38.4,30.06,WNW,292,4.3,4.3,49,0.00,,---,0.00,VWS V14.01,2013-03-17 05:14:00,
2013-03-16 22:19:00,57.4,38.4,30.09,WNW,292,1.6,3.1,49,0.00,,---,0.00,VWS V14.01,2013-03-17 05:19:00,
2013-03-16 22:24:00,57.4,38.4,30.09,NW,315,2.5,2.5,49,0.00,,---,0.00,VWS V14.01,2013-03-17 05:24:00,
2013-03-16 22:29:00,57.4,38.4,30.09,NNW,338,4.0,4.3,49,0.00,,---,0.00,VWS V14.01,2013-03-17 05:29:00,
2013-03-16 22:34:00,56.3,37.9,30.09,NNW,338,2.9,4.3,50,0.00,,---,0.00,VWS V14.01,2013-03-17 05:34:00,
2013-03-16 22:39:00,56.3,37.9,30.09,WNW,292,2.5,2.5,50,0.00,,---,0.00,VWS V14.01,2013-03-17 05:39:00,
2013-03-16 22:44:00,56.3,37.9,30.09,NW,315,1.6,2.7,50,0.00,,---,0.00,VWS V14.01,2013-03-17 05:44:00,
2013-03-16 22:49:00,56.3,37.9,30.09,NW,315,5.4,5.4,50,0.00,,---,0.00,VWS V14.01,2013-03-17 05:49:00,
2013-03-16 22:54:00,56.3,37.9,30.09,NNW,338,1.3,2.2,50,0.00,,---,0.00,VWS V14.01,2013-03-17 05:54:00,
2013-03-16 22:59:00,56.3,37.9,30.09,SW,225,0.0,2.5,50,0.00,,---,0.00,VWS V14.01,2013-03-17 05:59:00,
2013-03-16 23:04:00,55.2,37.4,30.09,NW,315,2.9,4.9,51,0.00,,---,0.00,VWS V14.01,2013-03-17 06:04:00,
2013-03-16 23:09:00,55.2,37.4,30.09,West,270,2.7,3.6,51,0.00,,---,0.00,VWS V14.01,2013-03-17 06:09:00,
2013-03-16 23:15:00,55.2,37.4,30.09,West,270,2.5,3.1,51,0.00,,---,0.00,VWS V14.01,2013-03-17 06:15:00,
2013-03-16 23:20:00,54.7,36.9,30.09,West,270,2.5,3.8,51,0.00,,---,0.00,VWS V14.01,2013-03-17 06:20:00,
2013-03-16 23:25:00,54.5,37.2,30.09,NW,315,1.3,2.7,52,0.00,,---,0.00,VWS V14.01,2013-03-17 06:25:00,
2013-03-16 23:30:00,54.3,37.1,30.09,NNW,338,2.2,2.5,52,0.00,,---,0.00,VWS V14.01,2013-03-17 06:30:00,
2013-03-16 23:35:00,54.3,37.1,30.09,NNW,338,3.6,5.6,52,0.00,,---,0.00,VWS V14.01,2013-03-17 06:35:00,
2013-03-16 23:40:00,54.1,36.9,30.09,South,180,1.6,3.6,52,0.00,,---,0.00,VWS V14.01,2013-03-17 06:40:00,
2013-03-16 23:45:00,54.0,36.8,30.09,NW,315,2.9,2.9,52,0.00,,---,0.00,VWS V14.01,2013-03-17 06:45:00,
2013-03-16 23:50:00,53.8,36.6,30.09,West,270,2.7,2.9,52,0.00,,---,0.00,VWS V14.01,2013-03-17 06:50:00,
2013-03-16 23:55:00,53.8,36.6,30.09,West,270,7.2,7.2,52,0.00,,---,0.00,VWS V14.01,2013-03-17 06:55:00,